Theta_e
325 325 326 326 326 327 327 327 327 327 327 328 328 328 327 328 328 327 327 327 327 327 327 327 327 326 326 325 325 325 326 326 327 327 327 327 326 326 326 326 325 325 325 325 325 324 324 324 323 323 323 322 321 320 320 320 318 317 317 315 313 313 309 305 302 298 294 294 294 294 293 293 292 292 291 291 291 292 292 292 290 289 288 288 288
324 325 325 325 326 326 326 326 326 326 327 327 327 327 327 327 327 327 327 327 327 327 327 326 326 326 326 326 325 326 326 326 327 327 327 327 326 326 326 326 326 325 325 324 324 324 324 324 323 323 322 320 319 319 318 317 317 318 318 316 315 314 310 306 301 297 294 293 293 293 293 292 292 291 291 291 291 292 292 291 289 288 289 288 288
323 324 324 325 325 325 326 325 326 326 326 326 326 327 327 327 327 327 326 327 327 326 326 326 326 326 326 325 325 326 326 327 327 327 327 326 326 326 326 326 326 325 324 324 325 324 324 323 322 322 321 320 318 318 317 316 317 319 318 316 315 314 312 308 302 298 295 292 292 292 292 292 291 291 291 291 291 291 291 290 289 289 289 288 288
323 323 324 324 324 325 325 325 325 325 325 325 325 326 326 326 326 326 326 326 326 326 326 326 326 326 326 326 326 326 326 326 327 326 326 326 326 325 326 326 325 325 325 325 325 324 323 322 321 320 319 319 318 317 315 315 316 317 315 314 314 313 312 308 303 298 294 292 291 291 292 291 290 290 290 290 290 290 290 289 289 289 288 288 289
320 321 322 323 323 324 324 324 324 324 325 325 325 325 326 326 326 326 326 326 326 326 326 326 326 326 326 326 326 326 326 326 326 326 325 325 326 325 325 325 325 325 325 325 325 323 322 321 321 320 319 318 317 315 313 313 314 313 311 312 313 311 308 305 301 296 293 292 291 290 290 290 289 289 289 290 290 289 289 288 289 289 289 289 289
316 318 320 321 322 322 323 323 323 324 324 325 325 325 325 325 326 326 325 325 326 326 326 326 326 326 326 327 326 326 326 326 326 326 325 325 325 325 325 325 325 324 325 325 324 322 321 321 321 320 320 319 317 315 313 314 313 311 311 313 312 309 305 303 299 294 292 292 291 290 289 289 289 289 289 289 289 289 288 288 288 289 289 290 290
312 315 318 320 321 321 322 322 323 323 323 324 324 324 324 324 325 325 325 325 325 325 326 326 326 326 326 326 325 325 326 325 324 325 325 325 325 325 324 324 324 324 324 324 322 320 320 321 321 321 320 319 318 316 314 313 311 310 313 313 310 307 304 301 297 292 290 291 290 289 289 288 288 288 288 288 287 287 287 287 289 291 292 292 291
309 311 313 315 318 319 321 321 322 322 322 322 322 322 322 323 323 323 324 324 324 325 325 325 325 325 325 325 325 325 326 325 324 324 325 325 324 323 324 324 324 323 323 322 321 320 320 321 320 320 319 318 316 314 314 313 311 310 311 310 307 306 304 299 294 291 290 290 289 289 288 288 288 288 288 287 286 287 288 288 290 293 293 292 291
309 310 310 311 312 314 316 318 319 320 321 321 321 321 320 321 321 321 321 322 323 323 323 324 324 324 325 325 325 325 325 325 324 324 324 324 323 323 323 323 322 322 322 320 319 319 320 320 319 317 316 315 313 312 312 312 311 310 310 308 306 305 301 297 293 290 289 289 288 288 288 287 287 287 287 287 288 289 290 290 291 293 293 291 289
309 309 309 309 310 310 311 312 314 315 316 317 317 317 317 317 317 317 318 318 319 320 320 322 323 323 323 323 323 323 322 323 323 323 323 323 322 322 321 320 320 320 319 319 318 319 319 319 318 316 315 313 312 312 311 311 310 310 310 309 308 305 301 296 292 289 289 288 288 288 287 286 287 288 288 289 290 290 291 291 292 292 291 288 288
308 308 308 308 309 309 309 310 311 311 312 312 313 313 313 314 315 315 316 317 318 319 320 321 321 321 321 321 322 321 321 322 322 322 322 322 321 320 320 320 319 318 317 317 318 319 318 317 316 315 314 312 311 311 310 310 308 307 307 308 307 306 303 297 292 289 288 288 288 288 287 287 288 289 289 290 289 289 290 292 292 291 288 286 286
308 308 308 308 308 308 309 309 309 309 309 310 311 312 313 314 315 316 316 317 318 319 320 320 320 319 320 321 321 321 321 321 321 321 321 321 320 320 319 319 318 317 317 317 317 316 315 314 313 313 312 311 309 309 309 308 306 305 305 305 305 304 303 300 296 292 289 288 288 288 288 288 289 289 289 289 289 289 289 289 290 290 287 286 285
309 308 308 308 308 308 309 309 308 308 309 310 311 312 313 313 314 315 315 316 316 317 318 318 318 319 319 320 319 319 319 319 319 319 319 319 319 319 318 318 318 317 316 314 313 312 312 311 311 311 310 309 307 307 307 307 306 305 305 305 304 302 299 297 296 293 291 289 288 289 289 289 289 290 290 290 290 289 288 289 290 289 287 286 285
309 308 308 308 309 310 310 310 308 308 309 310 310 311 311 311 311 312 312 313 313 314 315 316 316 317 318 318 318 318 318 318 317 317 317 317 317 317 317 316 315 314 312 311 311 311 310 310 310 309 308 307 307 307 307 306 306 305 304 304 302 299 296 294 292 290 289 289 289 289 289 289 289 289 290 289 289 288 289 291 291 290 288 286 285
308 308 308 308 309 309 309 309 308 308 309 309 308 308 307 307 307 307 307 309 310 311 312 313 314 315 315 316 317 317 317 316 316 316 316 316 315 313 313 313 312 311 310 310 310 309 309 309 308 307 306 306 306 306 305 305 304 303 303 302 300 296 293 291 290 289 288 288 288 289 289 289 289 289 288 288 288 288 289 290 290 289 287 285 284
307 308 308 308 308 307 308 308 308 308 308 307 306 305 304 304 304 304 305 306 307 308 310 311 312 313 313 314 314 315 315 315 315 315 315 314 312 311 310 310 310 310 310 309 308 308 309 309 308 306 305 304 304 303 304 303 303 302 302 301 298 294 290 289 289 288 288 288 288 288 288 288 288 288 288 288 288 288 288 288 287 286 284 283 283
307 308 308 308 308 306 306 307 307 307 306 306 304 303 302 302 302 303 304 305 306 307 308 309 310 311 312 312 312 313 313 314 314 313 313 312 311 310 309 309 309 309 308 307 307 307 308 308 307 305 304 303 303 302 302 301 301 300 300 297 295 291 289 289 288 288 288 288 288 288 287 287 287 287 287 287 287 288 287 286 286 284 283 282 282
307 307 308 308 307 307 306 306 307 306 304 304 303 302 302 302 302 302 303 304 306 306 307 308 309 310 310 310 311 311 311 311 311 311 311 310 310 309 309 308 308 307 306 306 305 306 305 304 304 304 303 302 301 300 299 299 298 298 296 294 292 290 289 288 287 287 287 287 287 287 287 287 286 286 286 286 286 287 286 286 286 284 283 282 282
308 309 309 308 307 307 306 305 305 305 303 303 303 302 302 303 303 302 302 303 304 306 307 307 307 308 308 308 308 309 309 309 309 309 309 309 309 309 308 307 306 305 305 304 303 303 302 302 302 302 301 301 300 299 298 298 297 296 294 292 291 290 289 288 287 287 287 287 287 287 286 286 286 286 286 286 286 286 286 285 285 284 284 283 282
309 309 308 307 306 306 306 305 304 304 303 303 302 302 303 303 303 303 303 302 303 305 305 305 306 306 306 306 306 307 306 306 307 307 307 308 308 308 307 306 306 304 303 302 301 301 300 300 301 301 300 299 299 298 297 296 295 293 292 291 290 289 288 287 287 286 286 286 286 286 286 286 286 286 286 285 285 285 285 284 284 284 283 283 282
308 307 306 306 306 305 305 304 304 303 302 302 301 301 302 303 303 304 304 304 303 304 304 304 304 304 304 304 304 304 304 305 305 305 305 306 306 306 306 305 304 303 301 300 300 300 300 300 299 299 298 297 296 295 294 293 292 290 289 289 288 288 287 286 286 286 286 286 285 286 286 285 285 285 285 285 285 285 285 284 283 283 283 283 282
306 305 305 305 305 304 303 303 302 302 301 300 300 301 302 303 304 304 304 303 303 303 303 302 301 301 300 300 301 301 302 302 302 303 303 303 302 302 302 302 301 301 300 300 299 299 299 298 296 296 295 294 293 292 291 290 289 288 288 287 287 287 286 286 285 285 285 285 285 285 285 285 285 285 285 285 285 285 284 283 283 283 282 282 282
304 304 304 303 303 303 302 301 301 300 300 299 300 301 302 302 303 303 303 302 301 301 300 299 299 298 297 297 298 299 299 299 300 301 301 301 300 299 299 299 299 300 300 299 298 297 296 295 294 294 293 292 291 290 289 288 287 287 286 286 286 286 286 286 285 285 285 285 284 284 284 284 284 284 285 285 285 284 284 283 283 283 282 282 282
303 302 302 302 301 301 300 300 299 299 299 300 300 301 301 301 300 300 300 300 299 298 297 296 296 296 295 295 295 296 297 298 299 300 300 300 300 298 298 298 298 299 298 297 296 295 294 294 293 292 292 290 289 288 287 287 286 286 285 285 285 285 285 285 285 285 285 284 284 284 284 284 284 284 284 284 284 283 283 283 282 282 282 282 282
301 301 301 300 299 299 299 299 299 299 299 299 300 300 300 299 298 298 298 298 298 297 295 295 295 294 294 294 295 295 296 297 298 299 299 299 299 297 297 298 297 297 297 296 295 294 293 293 292 291 290 289 288 287 286 286 285 285 285 285 285 285 285 285 285 285 284 284 284 284 284 283 283 283 283 283 283 282 282 282 282 282 282 281 281
300 300 299 298 298 297 297 298 298 299 299 299 300 300 299 299 298 297 296 297 297 296 295 294 294 294 293 293 294 295 295 296 297 298 298 298 298 297 296 296 295 295 295 294 293 292 292 291 290 289 288 287 287 286 285 285 284 284 284 284 284 284 285 285 285 284 284 284 283 283 283 283 282 282 282 282 282 282 282 281 281 281 281 281 280
298 298 297 297 297 296 297 297 297 298 298 299 299 299 299 299 298 296 296 295 295 295 294 293 293 292 292 291 292 294 295 295 296 297 297 297 296 296 295 294 294 294 293 292 291 290 290 289 288 287 287 286 285 285 284 284 284 284 284 284 285 285 285 285 285 285 284 284 284 283 283 283 282 282 282 282 282 281 281 281 280 280 280 280 279
297 296 296 296 296 296 297 297 296 297 297 297 297 297 297 297 297 297 297 297 296 294 293 292 293 293 292 291 291 291 292 294 295 296 296 297 296 295 294 294 293 293 292 290 289 289 288 287 286 286 285 285 284 284 284 283 283 283 283 284 284 284 285 285 285 284 284 284 283 283 283 283 283 282 282 281 281 281 281 280 280 279 279 278 277
296 296 295 295 295 295 296 296 296 295 295 295 296 296 296 297 296 297 298 300 300 299 297 297 296 296 297 296 294 291 291 293 295 295 295 296 296 296 295 294 293 291 290 289 288 287 286 286 285 285 284 284 284 283 283 283 283 283 283 283 283 283 283 283 283 283 282 282 282 282 282 282 282 282 281 281 281 281 280 280 279 279 278 277 276
295 295 295 294 294 295 294 294 295 295 294 294 294 294 294 295 296 297 298 299 300 301 301 301 300 299 299 298 297 297 297 297 295 294 294 294 294 294 293 292 290 289 288 288 287 286 286 285 285 284 284 284 284 283 283 283 283 283 282 282 282 282 282 282 282 282 281 281 281 281 281 281 281 280 280 280 280 280 279 279 279 278 277 276 276
294 294 294 294 294 294 294 294 294 294 293 293 292 292 291 291 292 295 296 297 298 298 298 299 300 299 299 298 297 297 297 296 295 294 293 293 292 291 290 289 288 288 288 287 287 286 286 285 284 284 284 284 283 283 283 283 283 282 282 282 282 282 282 282 281 281 281 281 280 280 280 280 279 279 279 279 278 278 278 278 278 277 277 276 276
294 293 294 294 294 294 293 293 293 292 292 291 292 291 290 288 288 290 291 293 294 295 296 297 297 296 297 297 296 294 293 292 292 291 290 290 289 289 288 288 287 287 287 287 286 286 285 285 284 284 284 283 283 283 282 282 282 282 282 282 281 281 281 281 281 280 280 280 280 280 280 279 279 278 278 277 277 277 277 277 276 276 276 276 275
294 294 293 293 293 293 293 292 292 291 291 290 290 290 289 287 286 285 287 288 290 291 292 294 295 294 293 294 294 293 290 289 288 288 287 287 287 286 286 286 286 286 286 286 286 285 285 284 284 283 283 283 282 282 282 282 282 281 281 281 281 281 281 281 280 280 280 280 280 279 279 279 279 278 278 277 277 276 276 276 276 276 275 275 274
294 293 293 293 292 292 292 292 291 291 290 290 289 289 289 288 286 284 284 285 285 286 287 288 290 291 290 290 290 290 288 286 286 286 285 285 285 285 285 285 285 285 285 285 285 284 284 283 283 283 282 282 281 281 281 281 280 280 280 280 280 280 280 280 280 280 280 279 279 279 279 279 278 278 278 277 277 277 276 276 276 275 275 274 274
293 292 292 292 292 291 291 291 291 290 290 289 289 289 288 287 286 285 284 284 283 283 283 284 285 286 287 286 286 286 285 285 285 285 284 284 284 284 284 285 284 284 284 284 283 283 283 283 282 282 281 280 280 280 280 280 279 279 279 279 279 279 279 279 279 279 279 279 279 278 278 278 278 278 278 277 277 276 276 276 276 275 275 275 274
292 291 291 291 291 291 290 290 290 290 289 289 289 289 288 287 286 285 285 284 283 282 282 282 283 284 284 284 284 284 284 284 284 284 284 284 284 284 284 285 284 284 283 283 283 282 282 281 281 280 280 280 280 279 279 279 279 279 278 278 278 278 278 278 278 278 278 278 278 278 278 277 277 277 277 277 276 276 276 275 275 275 275 274 274
290 290 289 289 290 290 289 289 289 289 289 289 288 288 287 286 285 285 284 282 282 281 281 281 282 282 283 283 283 283 283 283 283 283 283 283 283 283 284 284 284 284 283 283 281 281 280 280 279 280 279 279 279 279 278 278 278 278 277 277 277 277 277 277 277 277 277 277 276 276 276 276 276 276 276 276 276 275 275 275 274 274 274 274 273
290 289 288 288 288 288 288 288 288 288 288 287 287 286 285 284 284 283 282 281 280 280 280 280 281 281 281 281 282 282 282 282 283 282 282 283 283 282 283 283 284 283 282 281 280 280 279 279 279 279 279 278 278 277 277 277 277 276 276 276 276 276 276 276 276 275 275 275 275 275 275 275 275 275 275 275 275 274 274 274 274 274 273 273 273
288 288 288 287 287 287 287 286 286 286 285 285 284 284 283 282 281 281 280 279 278 279 279 279 279 280 280 280 281 282 282 282 282 282 282 282 282 282 282 283 283 282 281 280 279 279 278 278 277 277 277 276 276 276 276 276 276 275 275 275 275 275 275 275 274 274 273 273 273 273 273 273 273 273 273 273 273 273 273 273 273 273 273 273 273
286 286 286 286 286 285 285 285 284 284 283 283 283 282 282 281 280 279 278 278 277 277 277 278 278 278 279 279 280 281 282 281 281 281 281 281 281 281 281 281 281 281 279 279 278 278 277 277 276 276 276 275 275 275 275 275 275 275 274 274 274 274 273 273 273 272 271 271 271 271 271 271 272 272 272 272 272 272 272 272 272 272 272 272 272
285 284 283 284 284 284 284 283 283 283 282 282 282 281 281 280 279 279 278 277 276 276 276 276 276 277 278 279 279 280 281 280 279 279 279 279 279 279 279 279 279 278 277 277 277 276 276 276 275 275 275 274 274 274 274 274 274 274 274 273 273 273 272 272 271 271 270 269 269 269 269 270 270 270 270 270 270 271 271 271 271 271 271 271 271
282 282 281 281 282 282 281 281 281 281 281 281 281 280 280 279 278 278 277 276 276 275 275 274 275 275 277 278 278 279 280 279 278 278 278 277 277 277 276 276 276 276 275 275 275 275 275 275 274 274 274 274 274 274 273 273 273 273 273 272 272 272 271 271 270 270 269 268 267 267 268 268 268 268 269 269 269 269 269 270 270 270 270 270 270
281 281 280 280 280 281 280 279 279 279 279 279 279 278 278 278 277 277 276 275 275 275 274 273 274 275 276 276 277 278 278 278 277 277 276 276 276 275 275 275 275 275 275 274 274 274 274 274 274 274 273 273 273 273 273 273 273 272 272 271 271 271 270 270 269 268 267 267 267 267 267 267 267 267 267 267 267 268 268 268 268 269 269 269 269
280 279 279 279 279 279 279 278 278 278 277 277 277 277 277 277 276 276 275 274 274 274 273 273 274 275 275 275 276 276 277 276 276 276 275 275 275 275 274 274 274 274 274 274 274 274 274 273 273 273 273 272 272 272 272 272 272 271 271 270 270 269 269 268 267 267 267 266 266 266 266 266 266 266 265 265 266 266 267 267 267 268 268 268 268
278 278 277 277 277 277 276 277 277 276 276 276 275 275 275 275 275 274 274 273 273 273 273 273 274 274 274 274 274 275 275 275 275 275 274 274 274 274 273 273 273 273 273 273 273 273 273 273 272 272 272 271 271 271 271 271 270 270 269 269 269 268 268 267 267 267 266 266 266 266 266 266 266 266 265 264 265 265 266 266 267 267 267 267 268
278 277 276 275 275 275 274 275 275 275 274 274 274 273 273 274 274 274 273 274 274 274 273 273 273 274 274 274 274 274 274 274 274 274 273 273 273 273 272 272 272 272 272 272 272 272 272 272 272 271 271 271 270 270 270 270 269 269 268 268 268 268 267 267 267 267 267 266 266 266 266 266 265 265 264 263 264 264 265 265 265 266 266 267 267
277 276 276 275 274 274 273 273 273 273 273 273 272 272 273 273 274 274 274 274 274 274 273 273 273 273 273 273 273 273 273 273 273 273 272 272 272 272 272 272 272 272 271 271 271 271 271 271 271 271 270 270 270 270 269 269 268 268 267 267 267 267 267 267 267 267 267 266 266 266 265 265 264 263 263 263 263 263 263 264 264 265 265 266 266
276 275 275 274 274 273 273 273 273 273 273 273 273 273 274 274 274 274 274 274 274 274 274 273 273 273 273 273 273 273 272 272 272 272 272 272 272 271 271 271 271 271 271 271 270 270 270 269 269 269 269 269 269 269 268 268 267 267 267 267 267 267 267 267 267 267 267 266 266 265 264 264 263 262 261 261 262 262 262 263 264 264 264 265 265
275 274 274 273 273 273 273 274 274 274 274 274 274 274 274 274 274 273 273 273 273 273 273 273 273 273 273 272 272 272 272 272 272 271 271 271 271 271 271 271 270 270 270 269 269 268 268 268 268 268 268 268 267 267 267 267 267 267 267 267 267 267 267 267 267 267 267 266 265 264 264 263 262 261 261 261 261 262 262 262 263 263 264 264 265
274 274 274 274 273 274 274 275 275 274 275 275 274 274 273 273 273 273 273 273 273 272 272 272 272 272 272 272 272 272 272 271 271 271 271 271 270 270 270 270 269 269 269 268 268 267 267 267 267 267 267 267 266 267 267 266 267 267 267 267 267 267 267 267 267 267 266 265 265 264 263 262 261 261 261 261 261 261 261 262 263 263 263 264 264
273 274 274 274 274 274 274 274 274 274 274 274 274 273 273 273 272 272 272 272 272 272 271 271 271 271 271 271 271 271 271 271 271 270 270 270 269 269 268 268 268 268 268 267 267 267 267 266 266 266 266 266 266 266 266 266 267 267 267 267 267 267 266 266 266 266 266 265 264 263 262 261 261 261 261 261 261 261 261 262 262 263 263 263 264
Wind_Speed
34 36 37 37 38 38 39 39 40 40 39 37 36 38 38 38 37 36 34 33 33 32 31 31 31 30 30 31 31 31 32 33 33 33 33 34 34 34 34 34 35 35 36 35 35 34 34 35 35 36 36 35 35 35 35 36 32 26 26 29 29 28 28 24 16 9 11 17 20 24 27 27 29 31 29 27 24 22 19 17 16 15 15 15 15
34 35 35 36 37 38 38 38 38 37 37 36 36 37 37 37 36 34 33 33 33 32 32 32 31 31 31 31 32 32 33 33 33 33 34 34 34 34 34 34 35 35 35 34 33 33 34 35 35 34 33 33 33 34 34 34 30 26 28 29 27 28 29 29 24 15 13 17 20 23 26 27 29 31 30 28 25 21 20 18 16 15 15 15 15
32 33 33 34 36 37 37 36 36 35 35 36 36 37 37 37 35 34 34 34 33 33 33 32 32 31 31 32 32 32 33 33 32 33 33 33 34 34 34 34 34 35 34 33 32 33 33 33 33 32 31 31 31 32 33 32 29 28 29 28 25 26 29 30 28 23 18 18 21 24 27 29 31 30 29 27 23 21 20 18 16 16 16 16 16
30 30 31 33 34 34 35 35 34 34 35 35 36 36 36 36 34 34 34 33 33 33 33 32 32 31 32 32 32 33 34 33 32 32 33 32 33 33 33 33 34 34 34 33 32 31 31 31 31 29 28 29 30 31 31 30 30 31 29 26 25 25 28 31 30 27 22 20 22 26 28 30 30 29 27 25 23 22 20 18 17 17 17 17 18
27 29 30 31 32 32 33 33 33 34 36 36 36 35 35 34 34 34 33 33 33 33 32 32 32 33 33 32 33 34 34 33 33 32 31 30 31 31 31 32 32 32 32 32 31 31 30 30 29 26 26 27 29 30 29 29 30 30 28 26 26 26 27 28 29 28 25 22 24 25 26 27 28 27 26 25 24 23 21 19 19 18 18 19 20
25 27 28 29 30 31 32 32 33 35 35 35 35 34 33 32 33 33 32 32 32 32 31 31 31 32 32 32 34 34 33 32 31 29 28 28 29 30 30 30 31 31 31 31 31 30 29 28 26 24 25 26 28 28 28 29 31 30 28 28 27 26 26 27 27 28 26 24 24 25 26 28 27 25 26 26 24 23 21 20 20 20 20 21 21
22 24 26 28 29 30 31 32 33 33 33 33 33 32 31 31 31 31 31 30 30 30 31 31 31 31 32 32 32 30 28 27 25 26 27 27 28 29 29 29 29 29 29 30 28 26 25 26 25 24 25 25 27 27 27 29 31 29 29 30 28 26 26 27 27 27 25 23 23 24 26 28 27 24 25 25 23 22 22 22 22 22 22 21 21
21 23 24 26 29 30 30 30 30 30 30 30 30 29 29 29 29 28 28 28 29 29 29 30 30 29 29 28 27 25 25 26 26 26 26 26 27 27 27 28 28 28 28 27 25 22 23 23 23 23 24 25 25 26 27 28 29 28 30 31 28 26 26 27 27 26 25 24 22 23 24 25 25 23 22 22 24 25 26 25 24 23 21 21 20
22 22 23 25 26 26 26 26 26 26 27 27 27 27 26 25 25 25 25 25 26 26 26 26 26 26 26 25 25 25 26 27 26 25 25 26 26 25 26 26 26 26 25 24 23 23 22 21 21 21 22 22 22 22 23 25 27 27 29 29 27 26 26 26 26 27 26 23 20 21 21 23 25 25 24 26 29 28 26 25 25 23 21 20 20
23 23 25 25 24 22 21 21 22 22 23 23 22 22 21 21 20 20 21 21 21 21 20 21 22 23 23 22 23 23 23 22 22 22 23 23 23 24 24 23 22 22 23 23 22 21 20 20 19 19 19 18 18 18 19 22 25 27 28 27 26 26 26 26 27 28 27 24 23 23 22 23 27 31 31 31 31 28 25 24 23 21 19 18 18
23 25 26 25 23 21 20 20 19 19 19 18 18 18 17 17 17 17 17 17 17 17 18 19 19 19 19 19 20 21 20 20 20 19 19 18 19 20 19 18 18 20 21 20 19 19 19 19 17 16 16 17 16 16 17 20 23 25 25 24 23 24 25 27 28 29 28 26 25 26 25 25 29 33 33 31 30 29 27 24 22 20 17 14 12
23 23 23 23 22 21 21 20 19 18 18 17 17 18 17 18 18 18 17 17 16 16 17 17 17 17 17 16 17 18 19 18 17 16 15 14 15 15 15 15 16 17 18 17 18 18 18 16 14 14 15 15 15 15 17 20 22 22 22 22 22 23 25 27 29 31 31 29 27 28 29 28 29 32 32 31 30 30 27 24 22 20 18 17 14
22 21 21 20 20 20 20 19 19 19 19 19 19 19 19 19 19 18 18 17 16 16 16 16 16 17 17 16 15 15 15 16 15 14 14 13 14 14 13 14 14 15 16 15 15 15 14 12 12 12 13 14 15 16 17 19 20 20 21 22 23 24 26 28 29 31 33 33 32 32 32 31 30 31 32 32 31 28 26 25 24 22 20 20 19
22 21 20 19 19 18 18 19 19 19 20 20 19 20 19 19 19 19 18 18 18 18 17 17 17 17 18 19 18 17 16 16 16 16 15 15 16 15 15 14 14 13 12 11 10 10 10 9 9 11 12 13 14 15 16 17 18 19 21 22 23 24 26 28 29 29 29 31 31 31 31 29 29 29 29 29 28 27 25 24 24 23 22 21 20
23 22 21 20 20 19 19 19 20 20 21 20 20 20 20 19 19 19 18 19 19 19 19 19 19 18 17 18 19 19 18 17 16 17 17 17 16 15 15 14 13 11 10 9 9 8 7 7 8 10 11 12 13 14 14 14 16 17 19 21 22 24 25 27 29 29 28 26 26 27 26 26 26 27 26 25 24 24 23 22 20 20 20 19 18
23 23 23 23 23 22 21 21 22 22 22 22 21 21 20 19 19 18 17 18 18 18 19 19 19 19 18 18 18 18 18 17 16 16 16 16 15 14 13 12 11 10 9 8 8 7 6 5 7 9 11 11 11 11 11 11 13 16 18 20 21 23 24 24 26 29 29 26 24 24 24 24 23 23 23 22 20 20 19 18 18 17 17 16 16
25 26 26 26 26 25 25 25 25 25 24 23 23 21 19 18 17 18 18 18 18 19 19 18 18 18 19 19 18 17 16 15 15 14 14 13 13 12 12 11 11 10 9 8 8 7 6 5 6 7 9 9 9 9 9 10 12 15 17 19 20 22 23 22 23 25 27 26 25 24 23 23 22 20 20 19 19 18 17 17 19 19 17 14 14
27 28 29 29 28 28 27 28 27 27 26 25 24 22 19 18 17 18 19 19 19 18 18 17 17 16 17 17 16 15 15 14 13 12 12 11 11 11 11 10 10 9 9 8 8 6 6 5 5 6 7 8 8 8 8 9 11 13 15 17 19 20 21 20 21 22 23 24 24 24 23 22 21 20 19 18 19 20 20 20 21 21 20 19 16
31 31 32 31 29 29 29 29 29 28 27 26 25 22 21 19 17 17 19 20 20 18 17 17 17 16 15 15 14 14 14 14 14 13 13 12 10 10 10 10 10 10 10 9 9 8 7 6 5 6 7 6 6 7 8 8 10 12 13 15 17 19 19 18 19 20 21 22 22 22 22 21 21 20 20 20 20 21 22 22 22 22 23 24 20
34 33 31 29 29 29 29 30 30 29 28 27 24 22 21 20 19 18 19 20 20 20 19 18 17 16 16 15 15 15 14 14 14 14 14 13 12 11 11 11 11 11 11 10 9 8 7 5 4 5 5 4 4 5 6 7 8 9 11 13 15 16 16 15 15 17 18 20 20 20 20 20 20 20 21 22 23 24 23 23 24 25 25 24 22
34 31 29 29 29 29 30 30 30 28 27 25 23 21 21 20 21 21 20 20 20 20 19 18 17 16 16 15 15 14 14 14 14 14 14 14 13 12 12 11 11 11 11 10 8 6 5 4 3 2 2 1 1 2 3 4 5 6 8 10 12 13 13 12 12 12 13 15 17 18 18 19 20 21 22 23 24 25 25 25 25 26 26 25 23
32 30 29 29 29 29 29 29 28 26 24 23 22 22 21 21 21 22 21 20 20 19 18 18 17 15 14 14 13 13 13 14 14 15 15 14 14 13 12 11 10 9 9 9 7 5 5 4 3 2 2 1 1 0 2 3 4 5 6 8 10 13 13 12 11 11 11 12 13 15 17 18 19 21 22 23 25 25 26 26 26 26 26 27 25
31 30 30 29 29 29 29 28 27 25 23 23 23 23 23 22 22 22 21 21 20 19 18 18 17 16 14 13 12 12 13 13 14 15 15 15 15 14 12 11 10 9 9 8 7 6 5 5 4 4 3 2 1 1 1 2 3 4 5 7 10 12 13 14 13 13 13 13 14 15 17 18 19 20 21 23 23 24 25 26 26 26 26 26 26
30 29 29 29 29 29 28 27 26 25 24 24 24 24 23 23 22 21 21 21 21 20 19 19 18 17 16 14 13 13 13 13 14 14 15 15 16 15 14 13 12 11 10 9 8 7 6 6 5 4 4 3 2 2 2 2 2 4 5 7 9 11 13 14 14 14 14 14 16 17 18 18 19 20 20 21 21 22 23 24 25 26 27 27 26
30 30 29 29 28 28 27 26 26 25 25 25 26 25 25 23 22 21 21 22 21 21 20 20 19 19 18 17 16 15 15 15 15 15 15 16 16 16 15 15 13 12 11 10 9 8 8 7 6 5 5 4 4 3 3 2 2 3 5 6 8 10 11 12 13 14 14 15 16 17 18 18 18 18 18 18 18 20 21 22 23 24 26 27 27
30 30 28 28 28 27 26 26 26 25 25 25 26 26 26 25 24 22 22 22 21 21 21 21 20 19 19 19 19 18 17 17 17 17 16 16 16 16 15 14 13 12 12 11 10 9 8 7 6 6 5 5 4 4 4 3 3 3 4 5 7 8 9 10 11 12 13 14 15 16 16 16 16 16 16 16 17 18 19 20 21 22 23 25 26
29 28 27 27 27 27 28 28 27 26 26 26 25 25 25 25 25 24 24 23 21 21 21 21 20 19 19 20 21 20 19 18 18 18 18 18 17 16 16 15 14 13 12 12 10 9 9 8 7 6 6 6 6 5 5 5 4 4 4 5 6 7 8 9 10 11 12 13 14 14 15 15 15 15 15 16 16 17 17 18 19 20 21 21 23
28 27 28 27 27 28 29 28 28 27 26 26 25 24 25 26 26 26 26 25 23 21 21 20 21 21 21 22 21 20 19 19 20 19 19 18 17 17 16 15 14 13 13 12 11 10 9 9 9 8 7 7 6 6 5 4 3 3 3 4 5 7 8 8 9 10 11 12 13 14 14 14 15 15 15 15 16 16 16 17 18 19 20 19 19
25 25 26 26 26 27 27 27 27 27 25 24 23 23 23 25 25 24 24 25 24 22 21 22 23 24 24 25 24 22 20 21 20 18 17 16 15 15 14 14 13 13 12 12 12 12 11 10 9 9 8 7 7 6 5 4 3 2 1 2 4 6 7 8 9 10 11 12 12 13 14 15 15 15 15 16 16 16 16 16 17 18 18 17 19
23 23 24 24 25 26 26 26 26 26 26 24 22 20 19 20 22 22 22 23 23 22 22 23 24 24 24 24 22 19 19 19 18 17 16 15 13 13 13 13 14 14 13 12 12 12 12 11 10 9 8 7 6 6 5 4 3 2 1 0 2 3 5 6 7 8 10 11 12 13 13 14 15 15 15 15 16 15 15 16 16 17 17 17 19
22 22 24 24 25 26 25 25 26 26 25 25 24 21 17 15 16 18 20 21 21 20 19 19 21 21 21 20 17 14 15 17 17 16 16 16 15 15 15 15 15 15 14 13 12 12 12 12 11 9 8 7 7 6 5 5 4 3 3 2 1 1 2 3 5 6 7 9 10 11 12 13 14 14 14 15 15 15 14 15 15 16 17 18 19
22 22 23 24 25 26 26 25 26 26 25 25 25 23 21 17 12 11 13 15 17 17 16 16 17 17 16 16 16 15 15 17 17 17 17 17 17 16 17 16 16 15 14 13 12 12 12 11 11 9 8 8 7 6 6 5 5 4 3 2 2 2 2 3 3 5 6 7 8 9 11 12 12 13 13 13 13 14 14 15 15 16 17 19 19
22 22 23 24 26 26 26 26 27 27 27 26 25 25 24 21 17 15 13 13 14 14 15 15 16 16 15 14 15 17 18 18 18 19 19 18 18 18 17 16 15 15 14 13 13 13 12 11 11 10 9 9 8 7 6 6 5 4 3 2 1 1 2 3 4 5 6 7 8 9 10 11 12 13 14 13 13 14 14 15 16 16 17 18 19
21 22 24 26 27 27 27 28 27 27 27 27 26 25 24 23 23 21 19 17 16 15 15 15 15 16 16 16 16 18 19 19 19 19 19 19 18 18 18 16 14 12 11 12 13 14 13 12 11 10 9 8 7 6 6 5 4 3 2 1 0 1 2 3 5 6 7 8 9 10 11 12 12 13 14 14 14 15 16 16 17 17 17 18 19
20 21 23 25 26 25 26 27 27 27 27 27 27 26 25 26 27 25 21 19 17 16 16 16 15 15 17 18 18 19 19 19 19 19 18 18 18 18 18 17 15 12 10 11 12 13 12 12 11 9 7 7 6 5 5 4 3 2 1 1 2 2 3 4 5 7 7 8 10 11 11 12 13 14 15 16 15 16 17 17 17 17 18 18 19
19 19 21 24 24 24 25 26 26 27 27 27 27 28 28 28 28 26 23 22 21 20 18 18 17 17 17 17 17 17 18 18 18 17 17 16 16 17 17 18 17 15 13 12 12 11 11 10 9 8 7 6 5 4 3 3 2 2 2 3 4 4 5 6 7 7 8 9 10 11 12 13 14 15 16 16 16 17 18 18 18 18 18 18 19
18 19 20 21 22 23 24 24 25 26 27 27 27 28 28 28 27 26 24 23 23 23 21 21 20 20 19 18 17 17 18 18 18 17 17 16 15 14 15 17 18 16 15 13 13 12 11 10 9 8 7 6 5 4 3 3 3 3 3 3 4 5 6 7 7 8 9 10 11 12 13 14 14 14 15 16 17 17 17 17 17 18 19 18 18
18 19 20 20 20 22 22 23 23 24 26 26 27 27 26 26 26 26 25 24 24 25 23 22 21 22 21 20 18 19 19 18 18 17 16 15 14 13 14 16 17 17 16 14 13 13 12 11 10 9 8 6 6 5 4 4 4 4 4 4 5 6 6 7 8 8 9 10 11 12 13 13 13 13 14 15 17 17 17 17 17 18 18 18 17
17 18 19 20 20 21 22 22 22 23 23 24 24 25 25 24 24 24 25 25 24 24 23 22 21 21 21 21 20 20 20 19 18 18 16 15 15 15 16 17 17 16 15 14 13 13 12 11 9 9 7 6 6 5 5 5 5 5 6 7 8 8 9 10 10 10 10 10 10 11 12 12 12 12 13 14 16 17 17 18 18 17 18 18 18
17 17 19 20 20 21 21 22 22 22 22 22 22 23 24 24 23 24 25 25 24 23 23 22 20 19 20 21 20 20 20 20 19 18 17 17 16 15 16 16 16 15 14 13 12 11 10 9 8 7 6 5 5 5 6 6 6 7 8 8 9 10 10 10 10 10 9 9 10 10 10 11 11 12 13 14 15 16 17 17 18 18 18 18 19
18 18 19 20 20 21 21 21 21 21 22 22 23 23 23 23 24 25 25 24 24 23 22 20 18 17 17 18 17 16 18 20 19 18 17 17 16 15 14 14 13 13 12 11 10 9 8 7 6 6 5 5 5 5 6 6 6 7 8 9 9 10 10 10 10 10 9 9 9 9 9 10 10 11 12 13 13 14 16 17 17 18 18 18 19
19 20 20 19 20 21 20 20 20 21 22 22 22 23 24 24 25 25 24 24 24 24 22 20 18 16 16 16 15 14 15 17 18 16 16 15 14 13 12 11 10 9 9 8 7 7 6 5 5 5 4 5 5 5 6 6 7 7 8 8 9 9 10 9 9 9 9 8 8 8 8 9 10 10 11 12 13 14 15 16 17 17 17 18 18
21 22 22 21 21 22 22 21 21 22 22 22 22 23 24 25 25 25 25 24 24 24 23 21 19 18 17 16 15 15 16 16 16 15 14 13 12 11 10 9 8 7 7 6 6 5 5 4 4 4 4 5 6 6 7 7 7 7 8 8 9 9 9 9 8 8 8 8 9 9 10 11 11 11 12 12 13 14 15 15 16 16 17 17 17
23 24 24 24 23 23 23 23 23 23 22 23 23 23 24 25 25 25 25 24 23 22 22 21 20 19 19 17 15 15 15 15 14 13 12 11 10 9 8 7 6 6 6 5 5 5 4 4 5 5 5 6 6 7 7 8 8 8 8 8 8 8 8 8 8 8 8 9 10 11 11 12 12 12 12 11 12 13 14 14 15 15 16 16 16
24 25 25 25 25 25 24 24 25 25 25 24 24 22 22 23 24 23 23 23 22 22 21 20 19 18 18 16 15 14 14 13 12 11 11 10 9 8 8 7 6 6 6 5 5 5 5 5 5 5 6 6 7 7 7 8 8 8 9 9 8 8 7 7 7 8 9 10 11 12 12 12 12 12 11 11 11 12 13 14 14 14 15 15 15
25 26 26 26 26 26 25 25 25 25 25 25 24 23 22 22 23 23 22 22 22 21 20 18 16 16 15 15 13 13 12 11 11 10 9 8 8 7 7 7 6 6 6 6 6 6 6 6 6 6 6 7 7 7 7 8 8 8 8 8 8 7 7 7 8 8 9 10 11 12 12 12 12 12 10 10 11 11 12 13 14 14 15 15 15
26 27 27 28 28 27 26 25 25 25 24 24 24 24 24 23 23 23 21 20 19 19 18 16 15 14 13 12 11 11 10 9 8 8 7 7 7 6 6 6 6 7 7 7 7 7 7 7 7 7 7 7 7 7 7 8 8 8 8 8 8 7 8 8 8 9 10 10 11 11 12 11 11 11 10 10 11 11 12 13 13 13 14 14 14
27 28 28 29 29 29 27 27 27 27 26 26 25 25 24 23 22 22 21 19 17 17 16 15 13 12 11 10 9 8 8 7 7 6 6 6 6 6 7 7 7 8 7 7 8 8 8 8 8 8 7 7 7 7 7 8 8 8 8 8 8 8 8 9 9 10 10 10 10 10 11 11 11 11 11 11 11 11 12 12 13 13 13 13 13
26 28 28 28 29 29 29 29 29 28 28 27 26 25 23 22 21 20 19 17 15 14 13 12 11 10 9 8 8 7 6 6 6 6 6 6 7 8 8 8 8 8 8 8 8 8 8 8 8 8 8 8 8 8 8 9 9 8 8 8 8 8 9 10 10 10 10 10 10 10 10 10 11 11 11 11 11 11 12 13 13 13 13 12 13
27 28 29 29 29 28 28 28 28 27 26 25 25 23 21 20 19 17 16 15 14 12 11 10 9 8 7 7 6 6 6 6 6 7 7 8 8 9 9 9 9 9 9 8 8 9 9 9 9 9 9 9 9 9 10 10 9 9 9 8 9 9 9 10 10 10 10 10 10 10 10 10 10 11 12 12 11 12 13 13 13 12 12 12 12
28 28 28 27 27 26 25 25 25 23 22 21 21 20 19 17 16 15 13 12 11 10 9 8 8 7 6 6 6 6 6 7 7 8 8 9 9 10 10 10 10 10 9 9 9 9 10 10 10 10 10 10 10 11 11 11 10 10 10 9 9 9 9 9 10 9 9 9 9 10 10 10 10 11 12 12 12 12 12 12 11 10 10 11 11
Wind_Direction
225 225 225 225 226 228 229 230 230 231 232 231 231 233 236 236 237 238 238 238 240 240 241 242 243 244 245 247 248 248 248 247 247 247 246 246 246 246 247 247 245 245 246 246 247 247 248 249 249 250 250 248 246 245 244 242 240 239 238 233 231 235 232 222 224 234 221 219 220 219 220 219 218 220 222 224 227 231 238 246 254 263 269 274 280
226 227 227 226 227 229 230 231 232 232 232 232 232 234 236 237 237 237 238 239 240 240 242 244 245 246 246 248 248 248 247 246 247 247 245 244 245 245 245 245 244 245 244 244 245 247 247 247 249 250 249 249 247 245 242 238 237 233 230 230 232 236 233 225 223 225 223 219 216 215 216 216 216 219 219 221 226 231 236 244 251 259 266 271 278
229 229 228 229 230 231 232 232 233 233 233 233 234 235 237 238 238 238 238 240 241 241 243 245 245 246 248 249 249 248 248 248 248 247 245 245 244 244 243 243 243 243 242 243 248 249 247 247 250 250 248 249 247 244 241 238 235 232 229 230 234 237 236 230 224 222 219 215 212 212 211 211 214 217 218 220 224 230 236 242 250 257 263 269 275
231 231 230 232 233 233 233 233 233 233 234 235 236 237 238 239 239 239 240 241 241 242 243 244 245 247 247 248 249 248 247 247 248 247 246 246 246 244 245 245 244 244 244 247 251 250 248 248 249 248 247 248 247 244 241 236 232 230 230 231 233 235 235 231 226 223 217 209 210 213 211 208 209 214 216 216 221 228 234 240 248 254 261 268 273
232 232 232 233 234 233 234 233 233 234 235 236 237 238 239 239 240 241 241 241 241 242 242 242 243 244 244 247 249 248 248 248 247 247 247 248 249 248 248 248 248 248 249 250 252 251 248 247 247 249 251 251 249 245 240 234 231 229 230 232 233 232 231 229 225 223 219 211 208 208 207 205 207 212 215 215 218 225 231 238 245 252 259 264 269
232 232 232 232 233 233 233 233 233 234 236 237 238 239 239 240 240 241 240 240 240 241 241 242 243 244 245 247 247 245 246 248 248 250 250 251 251 251 250 250 250 250 251 252 252 249 247 248 251 254 256 256 253 248 241 235 231 229 231 235 234 229 227 227 222 219 219 217 209 202 201 204 207 210 214 216 220 225 230 237 242 248 255 262 267
230 230 230 230 231 233 233 233 234 235 236 237 238 238 239 239 239 239 239 239 240 240 241 242 243 244 245 245 245 245 249 250 251 254 254 253 252 251 250 249 250 250 252 253 252 250 249 251 254 255 256 258 256 249 240 234 230 230 235 237 232 226 224 223 218 215 215 213 206 201 201 203 207 211 214 215 220 227 231 235 240 245 252 260 265
229 228 228 229 230 231 232 233 234 235 235 236 237 237 237 237 237 238 238 237 237 238 239 240 241 243 245 246 247 251 253 250 247 248 251 252 252 251 250 250 250 251 251 252 252 250 249 250 252 255 256 258 256 249 243 240 237 236 236 232 227 225 223 219 213 211 211 208 202 200 199 198 203 211 214 213 217 225 229 231 238 246 252 258 262
231 231 230 230 231 232 232 233 233 234 234 234 235 235 236 236 236 235 235 235 236 238 239 241 243 244 245 246 246 246 247 247 248 248 250 252 252 252 250 248 248 248 248 247 246 244 245 249 253 257 258 258 256 253 252 251 248 242 236 229 226 224 222 217 211 207 205 201 196 194 194 196 201 205 208 211 216 223 228 229 236 246 251 254 258
233 232 232 233 233 232 231 231 231 231 231 231 232 232 232 232 232 231 233 234 235 236 236 237 238 239 240 241 243 243 243 245 249 250 251 252 251 249 248 247 246 246 243 240 240 243 249 256 260 262 264 262 258 257 256 253 248 244 240 235 232 227 222 215 210 207 203 198 194 192 192 198 205 207 211 217 219 223 225 227 232 240 245 250 257
230 231 233 233 232 230 228 227 226 225 225 224 222 223 222 221 222 223 225 226 226 226 227 229 231 234 236 237 239 241 241 241 243 245 246 247 246 243 244 246 245 241 238 237 243 251 256 257 260 265 269 268 264 261 258 251 245 242 240 240 242 240 233 222 213 208 204 201 200 199 198 205 212 213 216 220 222 224 226 227 230 232 232 236 249
228 230 231 230 228 227 226 224 221 218 214 212 211 212 212 212 213 214 213 213 214 213 216 218 219 223 229 230 229 230 231 232 231 230 229 231 236 238 238 240 240 238 238 242 246 251 253 254 258 265 269 268 264 259 254 249 245 242 240 243 246 247 243 236 227 218 211 206 205 207 210 213 217 219 220 222 225 226 226 228 231 231 228 229 235
225 226 226 225 222 221 220 217 213 210 207 207 208 207 208 210 210 212 211 211 211 210 212 214 213 214 220 223 222 220 218 218 218 218 223 228 233 235 235 235 238 240 241 242 244 245 248 254 262 266 265 261 255 253 250 248 245 243 242 244 245 244 241 237 233 227 222 216 213 217 221 222 224 228 229 228 228 227 225 227 233 234 232 234 239
220 222 221 219 216 214 213 209 206 204 203 205 207 207 210 212 213 216 216 216 217 217 217 218 218 219 220 222 226 227 225 223 223 226 233 237 233 230 229 229 231 234 235 235 239 245 249 257 265 265 262 257 254 253 252 249 246 242 242 244 244 242 237 231 227 225 226 225 224 229 233 233 234 237 238 234 232 231 231 234 239 239 237 239 244
216 218 217 216 213 210 207 204 201 200 201 204 208 211 215 217 217 218 218 218 220 221 221 222 222 222 221 220 222 225 226 227 227 229 232 232 226 221 220 220 220 220 222 226 234 240 245 256 263 261 260 259 259 257 254 251 247 244 245 247 247 243 237 232 228 226 228 232 235 239 243 244 245 244 243 243 241 240 241 246 251 250 244 242 244
212 215 215 214 212 208 204 202 200 200 202 206 211 215 219 219 215 213 213 214 214 215 217 218 219 220 221 221 221 221 222 222 221 221 219 218 215 212 210 210 208 209 214 221 228 231 234 246 255 256 258 260 262 261 260 256 251 248 250 251 250 245 240 235 232 231 234 238 243 246 247 248 249 248 248 250 250 248 247 248 250 246 238 236 241
213 214 215 215 212 208 205 203 203 204 206 209 213 217 218 215 210 207 208 210 210 210 212 212 213 215 216 217 218 216 214 212 210 210 209 208 208 205 201 199 198 201 205 211 218 219 218 232 248 255 260 263 267 267 263 255 251 252 253 253 251 247 243 239 236 236 238 241 244 247 248 247 249 252 253 252 252 252 246 239 239 235 226 228 240
215 215 217 217 214 210 207 207 207 208 209 213 216 216 213 210 207 207 208 208 206 205 207 207 207 209 210 211 213 212 210 207 205 207 208 206 204 202 200 196 195 197 200 203 209 213 213 220 236 251 258 262 267 268 265 260 257 257 256 254 253 251 247 243 240 239 241 242 243 245 247 248 249 251 254 254 255 255 250 246 244 235 225 227 235
219 219 220 219 215 213 210 209 211 212 214 217 218 216 212 208 206 206 207 207 206 203 205 208 209 211 214 218 222 222 221 219 217 216 215 211 209 208 203 197 195 196 198 200 202 205 210 214 222 240 250 256 265 271 271 270 269 266 262 257 256 257 257 252 247 245 244 244 245 246 247 249 251 254 257 258 258 258 257 255 251 241 235 234 233
224 223 221 218 215 214 212 211 214 216 218 219 217 215 212 206 203 201 200 201 204 206 208 211 213 213 214 215 216 215 215 216 216 215 215 214 215 213 207 204 201 196 192 195 196 197 201 204 211 228 240 250 266 275 275 275 273 269 264 261 262 265 267 262 256 253 250 249 250 251 252 255 257 259 260 261 260 260 257 254 251 247 244 241 234
225 222 220 217 215 214 213 214 215 218 219 218 215 212 209 205 201 200 198 196 198 200 201 202 203 204 203 203 203 201 200 200 200 201 201 200 201 202 201 199 196 190 185 185 186 184 181 174 174 197 216 237 261 274 279 280 275 267 266 267 267 267 265 263 262 259 256 254 254 256 258 259 259 260 261 261 261 261 258 254 252 250 248 246 242
223 221 217 215 213 212 213 213 214 216 216 213 210 207 206 204 203 202 200 196 194 193 192 193 193 193 193 195 195 193 191 191 190 189 188 187 185 187 189 185 181 177 174 172 169 163 156 143 136 142 142 137 139 282 289 279 268 265 267 265 262 258 255 256 258 257 257 257 256 257 258 257 257 259 260 260 260 260 259 256 254 254 253 252 250
220 217 214 211 210 210 210 210 211 211 210 206 205 204 203 202 201 202 199 193 188 186 186 186 185 182 181 182 183 183 183 184 183 182 180 179 176 175 176 173 169 167 162 158 154 151 144 138 138 143 149 153 157 177 235 258 261 264 263 256 252 252 252 252 253 254 256 256 254 255 257 257 258 259 261 263 263 263 262 261 259 259 259 258 256
214 211 209 207 207 206 206 207 206 206 204 202 201 201 201 199 198 198 196 190 184 181 181 181 179 174 172 171 171 173 175 176 178 178 175 173 171 169 168 166 164 163 159 154 153 153 151 151 154 158 164 167 170 182 194 217 240 248 252 251 248 249 250 251 252 253 253 252 252 255 258 260 262 265 269 272 272 269 266 264 262 261 261 261 261
207 207 205 203 203 202 201 202 203 203 202 200 198 198 197 196 194 192 191 188 184 181 179 180 177 172 169 167 167 170 172 172 173 173 171 169 166 165 166 167 166 165 161 158 160 162 162 164 163 164 168 169 167 171 172 174 193 219 236 243 246 248 250 251 251 250 250 252 255 261 266 270 273 277 279 279 276 274 272 269 267 266 265 265 265
202 202 200 199 199 195 194 195 197 200 201 200 200 199 197 194 192 190 189 189 187 184 182 180 178 174 170 168 167 168 170 171 172 171 169 168 167 166 166 165 163 163 163 162 163 163 161 162 161 160 159 157 155 152 149 155 172 193 219 237 248 254 255 256 256 256 260 265 269 274 281 284 285 286 285 283 281 281 281 279 277 275 273 271 268
198 196 194 194 193 190 190 190 191 194 196 196 198 199 199 197 193 189 189 188 186 185 183 181 178 173 169 167 167 168 170 173 173 173 171 170 168 167 167 165 165 166 164 162 161 159 157 155 152 150 148 145 145 147 148 154 165 181 208 235 255 264 268 271 272 273 277 280 283 287 290 290 290 290 289 288 288 288 287 285 283 282 281 277 272
196 193 192 190 187 188 189 187 187 188 189 191 193 194 196 197 195 193 194 193 190 187 184 182 181 178 172 168 166 166 172 178 178 176 174 172 170 169 168 168 168 168 166 163 159 156 155 151 146 143 144 144 143 144 146 150 156 172 202 228 248 260 266 270 272 274 278 282 284 288 289 289 291 292 291 290 290 290 290 287 284 283 283 278 272
193 190 188 185 184 185 185 186 186 183 181 184 189 193 197 199 198 198 201 202 203 202 198 196 193 187 180 176 172 171 177 181 180 177 175 174 173 173 172 172 171 167 165 165 162 155 150 147 145 145 145 143 140 136 133 132 131 137 186 230 246 256 262 268 273 279 283 286 287 288 290 291 292 292 291 290 291 292 291 288 285 285 282 276 271
186 185 183 183 183 182 181 182 183 180 177 176 177 181 190 198 201 202 203 205 208 211 211 209 202 192 185 182 180 184 188 185 177 174 175 173 172 171 171 171 170 166 162 162 160 155 150 148 148 149 148 141 136 131 125 119 111 105 102 244 264 269 273 279 287 289 287 285 285 287 289 289 290 290 290 290 292 293 292 290 288 285 280 275 273
182 182 183 184 183 180 179 179 178 176 175 173 170 167 167 176 192 202 203 203 204 206 208 206 199 192 188 186 183 184 187 182 176 175 176 174 172 171 170 168 168 167 166 165 161 156 155 153 150 148 143 132 124 119 114 108 101 96 92 84 46 329 309 310 307 299 293 289 289 289 288 287 288 289 289 289 292 293 292 290 287 282 278 275 273
183 182 184 183 181 180 179 176 174 172 169 169 169 165 157 149 150 169 186 194 195 194 192 190 186 183 186 189 184 175 172 174 175 174 172 170 169 168 168 167 166 166 167 168 163 156 155 153 147 140 131 123 118 116 113 108 102 98 94 88 73 44 7 345 320 306 302 301 297 295 295 296 296 294 292 291 292 291 289 287 284 281 280 277 274
187 184 182 179 178 179 177 175 174 172 169 167 167 165 160 151 139 132 140 153 162 167 170 173 176 174 173 180 184 177 171 169 169 167 166 164 163 161 160 160 162 163 165 166 160 153 149 144 136 130 125 122 122 123 120 118 119 119 119 109 84 46 357 328 311 308 311 309 304 302 303 303 302 299 297 296 294 291 288 285 284 281 278 275 274
192 188 183 180 178 178 178 178 176 173 171 169 167 164 163 159 150 141 135 135 138 140 145 153 163 168 168 169 172 171 168 165 163 162 161 159 158 158 154 150 150 155 162 164 157 149 142 136 131 131 134 137 142 147 145 145 152 154 156 170 232 312 310 306 305 311 316 314 310 309 309 308 305 302 300 299 295 290 286 283 282 279 275 274 276
194 190 186 183 180 179 180 179 176 173 171 169 168 166 164 161 159 155 151 148 141 133 132 137 147 157 162 162 162 163 162 160 159 159 158 157 158 158 152 145 144 148 151 152 149 144 141 140 141 145 152 155 157 160 158 159 167 172 187 260 288 293 296 298 301 306 308 308 308 309 308 307 305 303 300 297 291 287 284 283 282 280 277 277 278
191 188 185 184 182 181 180 179 177 176 174 171 170 168 165 164 163 161 158 155 147 139 135 135 139 147 152 153 156 158 157 156 155 155 156 158 161 162 157 152 153 157 156 154 153 150 149 152 153 153 157 160 160 166 172 178 200 229 254 277 288 292 294 296 298 299 300 301 302 302 301 300 300 301 300 294 290 288 287 285 284 281 278 278 278
188 185 183 184 183 181 179 179 178 177 175 172 170 167 165 165 164 160 157 154 149 144 141 139 139 140 139 139 146 151 152 153 153 152 153 157 162 168 168 163 162 163 162 162 164 160 154 155 156 156 162 169 175 187 201 212 233 251 259 273 285 290 294 295 295 296 297 297 297 297 297 297 298 299 298 295 292 291 290 288 287 285 282 280 278
188 186 185 184 183 179 177 176 175 174 172 170 168 166 163 162 161 158 155 152 149 146 144 145 145 141 136 137 144 147 147 148 148 147 150 155 161 166 169 168 167 166 163 162 164 160 155 156 162 167 172 179 185 194 203 209 221 237 248 258 267 273 277 281 283 284 287 289 291 292 292 293 295 298 298 297 295 294 293 292 289 287 285 282 278
185 186 187 185 182 179 176 172 170 169 168 166 165 163 159 157 155 154 152 150 149 147 147 147 146 142 140 142 146 147 145 142 140 140 142 148 155 161 165 168 169 169 167 167 167 166 165 166 170 175 180 188 194 201 212 224 236 250 260 266 270 272 273 274 275 276 279 281 283 285 287 290 295 298 298 296 296 295 294 293 290 286 285 283 280
180 181 183 182 179 177 175 171 169 167 165 162 161 160 157 155 154 153 151 149 148 147 147 144 141 142 145 147 150 152 148 140 138 141 143 144 149 156 162 167 169 169 170 170 169 170 173 173 175 181 189 200 212 222 236 247 257 266 273 276 279 280 279 280 281 281 282 282 283 286 289 292 295 298 296 295 294 293 292 291 289 287 286 284 284
178 176 175 176 175 172 168 166 166 165 163 161 159 158 157 156 155 154 152 150 146 144 141 137 134 138 147 150 153 156 150 141 140 144 145 146 150 153 156 162 165 164 165 165 164 168 173 174 179 190 199 212 227 238 249 260 270 277 281 282 285 286 288 289 288 285 282 281 284 290 293 294 295 296 295 293 293 292 291 290 290 290 289 288 287
173 168 166 166 167 163 159 158 158 159 158 157 157 157 157 156 155 154 151 148 145 141 135 130 128 132 139 144 149 152 149 145 145 146 146 148 152 153 154 159 162 163 167 169 170 174 180 183 192 206 218 231 245 253 262 270 276 280 283 285 288 291 292 291 290 289 287 287 289 290 290 290 291 291 291 291 292 292 292 292 292 291 290 289 289
168 163 158 157 157 156 153 151 150 151 152 152 153 155 155 154 153 152 150 147 145 142 135 129 128 129 130 134 141 147 147 146 146 147 148 150 151 153 157 162 166 171 177 181 185 192 199 207 219 233 244 254 263 269 274 277 281 283 286 289 290 291 292 292 293 293 293 292 291 288 285 285 287 287 288 290 292 292 293 293 292 292 291 290 289
161 155 152 150 149 148 148 148 147 146 146 146 147 149 150 150 150 149 147 145 143 141 135 132 131 131 130 131 137 142 144 144 145 147 149 151 154 160 167 174 181 190 197 205 212 218 227 236 245 256 262 267 273 278 281 285 288 288 287 288 287 288 291 293 293 294 293 293 294 294 294 295 295 293 293 293 292 292 293 292 291 292 291 289 288
154 148 144 142 141 140 141 142 142 141 141 140 139 140 144 146 145 144 144 142 139 136 133 131 131 132 132 133 137 140 140 142 146 148 153 159 165 172 180 190 200 210 219 230 239 247 256 260 262 266 269 272 277 281 283 285 287 286 285 285 286 288 291 291 291 293 293 294 294 296 296 298 300 300 299 296 292 290 289 288 288 289 288 286 285
151 145 141 138 135 134 134 134 135 135 134 134 133 133 136 138 138 136 137 137 135 133 132 131 132 134 134 135 139 141 143 147 151 155 162 169 176 184 195 206 217 228 239 249 258 265 270 270 269 268 268 270 274 278 279 280 279 278 279 281 284 289 292 292 293 295 295 293 292 292 292 294 296 297 296 293 290 288 286 285 285 285 285 285 285
149 144 140 138 134 131 130 130 129 128 127 127 127 128 129 130 130 130 131 133 133 133 134 135 137 138 138 141 144 147 150 155 160 165 173 184 193 203 216 226 236 246 254 261 266 267 267 268 269 267 267 269 270 270 272 273 272 272 273 277 282 288 291 291 292 292 291 288 286 287 289 292 293 293 290 286 284 285 285 284 284 284 284 286 288
145 140 137 136 134 132 130 130 129 127 126 125 125 126 128 129 130 131 133 135 136 137 138 140 142 144 146 150 154 157 162 168 174 182 193 204 215 226 235 243 249 254 258 261 263 263 264 266 267 268 268 268 266 265 265 265 266 267 270 274 280 285 287 287 287 286 285 287 288 290 292 293 291 288 285 282 281 282 282 281 283 284 285 287 289
138 134 131 130 130 129 129 129 127 127 127 127 127 128 129 130 131 133 135 137 139 140 142 145 149 153 158 161 165 172 179 186 197 207 217 226 234 241 246 249 252 255 255 256 257 260 262 264 266 267 267 266 265 263 262 261 262 265 268 273 278 282 282 283 285 285 286 289 292 293 293 291 287 285 283 282 282 282 280 278 280 282 285 288 289
126 125 123 122 121 122 123 124 124 125 127 128 129 130 131 132 134 136 139 141 144 147 151 155 159 165 171 176 184 194 203 212 222 229 235 241 244 246 248 250 252 253 254 254 255 258 260 262 263 263 263 263 262 262 263 263 265 269 271 274 277 279 279 282 286 289 290 290 291 291 291 289 286 284 284 284 283 282 280 279 281 282 283 286 288
116 115 114 114 115 117 119 120 121 123 126 127 129 131 134 136 138 141 144 148 151 156 162 168 173 180 188 197 207 217 225 232 237 240 242 244 245 246 248 250 252 254 256 257 257 259 259 260 261 260 260 260 261 262 264 267 270 273 276 278 278 279 281 284 287 290 291 291 290 289 287 284 282 282 283 284 283 282 281 281 281 281 282 283 283